This is the latest recevied weather packets stored in our database for station/object NY3Q. If no packets are shown the sender has not sent any weather packets the latest 10 day(s).
| Time | Temp. | Humidity | Pressure | Rain* | Wind** | Luminosity | Snow |
|---|---|---|---|---|---|---|---|
| 1777648675 | 27.78° C | 67% | 1012.5 hPa | 0 mm | - | 278 W/m² | - |
| 1777648370 | 27.78° C | 66% | 1012.7 hPa | 0 mm | - | 278 W/m² | - |
| 1777648067 | 27.78° C | 67% | 1012.8 hPa | 0 mm | - | 431 W/m² | - |
| 1777647763 | 28.33° C | 64% | 1012.6 hPa | 0 mm | - | 489 W/m² | - |
| 1777647459 | 28.33° C | 66% | 1012.7 hPa | 0 mm | - | 494 W/m² | - |
| 1777647158 | 27.78° C | 70% | 1012.7 hPa | 0 mm | - | 304 W/m² | - |
| 1777646550 | 27.78° C | 73% | 1012.2 hPa | 0 mm | - | 281 W/m² | - |
| 1777646246 | 27.22° C | 73% | 1012.6 hPa | 0 mm | - | 347 W/m² | - |
| 1777645944 | 26.67° C | 74% | 1012.2 hPa | 0 mm | - | 362 W/m² | - |
| 1777645640 | 26.67° C | 74% | 1012.4 hPa | 0 mm | - | 396 W/m² | - |
| 1777645336 | 26.67° C | 76% | 1012.3 hPa | 0 mm | - | 444 W/m² | - |
| 1777645032 | 26.11° C | 77% | 1012.5 hPa | 0 mm | - | 298 W/m² | - |
| 1777644729 | 25.56° C | 77% | 1012.5 hPa | 0 mm | - | 218 W/m² | - |
| 1777644426 | 25.56° C | 76% | 1012.5 hPa | 0 mm | - | 221 W/m² | - |
| 1777644123 | 26.11° C | 76% | 1012.3 hPa | 0 mm | - | 270 W/m² | - |
| 1777643819 | 25.56° C | 79% | 1012.1 hPa | 0 mm | - | 301 W/m² | - |
| 1777643516 | 25° C | 79% | 1011.9 hPa | 0 mm | - | 345 W/m² | - |
| 1777643213 | 25° C | 79% | 1012.1 hPa | 0 mm | - | 189 W/m² | - |
| 1777642909 | 25° C | 81% | 1012.2 hPa | 0 mm | - | 193 W/m² | - |
| 1777642606 | 24.44° C | 80% | 1012.1 hPa | 0 mm | - | 158 W/m² | - |
| 1777642303 | 24.44° C | 81% | 1012.3 hPa | 0 mm | - | 149 W/m² | - |
| 1777642000 | 24.44° C | 82% | 1012.3 hPa | 0 mm | - | 153 W/m² | - |
| 1777641696 | 24.44° C | 82% | 1012.2 hPa | 0 mm | - | 178 W/m² | - |
| 1777641391 | 25° C | 83% | 1012.2 hPa | 0 mm | - | 173 W/m² | - |
| 1777641086 | 24.44° C | 86% | 1012 hPa | 0 mm | - | 243 W/m² | - |
* Rain latest hour (hover to see other rain measurements)
** Current wind speed in m/s (hover to see current wind gust speed)